COSMOS 2245

Satellite information

Favourite Embed

Satellite Type and Status

PAYLOADIN ORBIT

Key statistics

Satellite COSMOS 2245 at a glance.

Uptime

11687

Days in orbit

Revolutions

≈ 12.6

Per day

Orbit

LEO

Low Earth Orbit

Inclination

82.6

Latest

Satellite identification and parameters

Extended collection of information and parameters for COSMOS 2245.

Object identification

Identified? True

Debris? False

Object name: COSMOS 2245

International designator: 1993-030A

Object number (NORAD): 22646

Object ID (CCSDS): 22646

Country: COMMONWEALTH OF INDEPENDENT STATES (CIS)

Current information (Y/N): Y

RCS size: MEDIUM

Orbital parameters

Period: 113.918 minutes

Inclination: 82.5875 deg

SMA: 7784.361 km

Apoapsis: 1416.364 km

Periapsis: 1396.087 km

RAAN: 208.266 deg

Eccentricy: 0.0013024

Argument of periapsis: 98.2506 deg

Mean anomaly: 20.3811 deg

Mean motion: 12.64061911 rev/day

Mean motion (dot): 0.0000002 rev/day2

B* drag term: 0.00004778 1/REarth

Two-line elements (TLE)

Creation date: May 10, 2025, 2:32 a.m.

Reference frame: TEME

Reference center: EARTH

Epoch: May 9, 2025, 5:54 p.m. UTC

TLE line 0: 0 COSMOS 2245

TLE line 1: 1 22646U 93030A 25129.74630796 .00000020 00000-0 47780-4 0 9998

TLE line 2: 2 22646 82.5875 208.2660 0013024 98.2506 20.3811 12.64061911476105

Live tracking on map

Real-time ground track for satellite COSMOS 2245.

In-orbit conjunctions

There are no conjunctions computed for COSMOS 2245, at the moment. Check back to stay up to date, as we update our databases every day.

Go to all conjunctions

Associated space launch

Second generation store-dump military communications satellite

COSMOS 2245 was lifted into orbit during the mission ‘Tsiklon-3 | Strela-3 89 to 94’, on board a Tsiklon-3 space rocket.

The launch took place on May 11, 1993, 2:56 p.m. from 32/1.

For more information about the launch, click the button.

Launch to space Tsiklon-3 | Strela-3 89 to 94
Tsiklon-3 | Strela-3 89 to 94

Agency: N/A

Status: Launch Successful

Launch date: May 11, 1993, 2:56 p.m. UTC

Rocket: Tsiklon-3

Launch pad: 32/1

Location: Plesetsk Cosmodrome, Russian Federation

...

Latest news about this satellite

There are no fresh news available about this satellite. Check back as we update our databases every day.


Newsletter sign-up

Weekly statistics, charts and insights to help you stay on top of the space industry.